K1BES Weather Reports


Display with metric or nautical units.
time (UTC)temp
F
wind
direction
speed
MPH
gust
MPH
rain 1hr
in
rain 24hr
in
rain mn
in
humidity
%
barometer
mb
20260503044006 74 39 0.0 1.0 0.00 0.00 0.00 89 1016.1
20260503043502 74 42 0.0 5.0 0.00 0.00 0.00 89 1016.4
20260503042959 74 323 0.0 3.0 0.00 0.00 0.00 89 1016.6
20260503042455 73 87 1.0 1.0 0.00 0.00 0.00 89 1016.6
20260503041952 73 345 1.0 3.0 0.00 0.00 0.00 89 1016.4
20260503041449 73 33 0.0 2.0 0.00 0.00 0.00 90 1016.5
20260503040947 73 39 0.0 1.0 0.00 0.00 0.00 91 1016.5
20260503040444 73 39 0.0 2.0 0.00 0.00 0.00 91 1016.5
20260503035941 73 23 1.0 3.0 0.00 0.38 0.38 91 1016.4
20260503035437 73 36 0.0 2.0 0.00 0.38 0.38 91 1016.4
20260503034936 72 0 1.0 2.0 0.00 0.38 0.38 92 1016.4
20260503034433 72 21 0.0 2.0 0.00 0.38 0.38 92 1016.3
20260503033930 72 36 1.0 2.0 0.00 0.38 0.38 93 1016.3
20260503033427 72 44 1.0 2.0 0.00 0.38 0.38 94 1015.9
20260503032925 72 284 1.0 1.0 0.00 0.38 0.38 94 1015.8
20260503032423 72 16 1.0 1.0 0.00 0.38 0.38 94 1015.8
20260503031920 72 35 0.0 1.0 0.00 0.38 0.38 94 1015.6
20260503031418 72 34 0.0 1.0 0.00 0.38 0.38 95 1015.4
20260503030914 72 15 0.0 2.0 0.00 0.38 0.38 95 1015.3
20260503030411 72 37 0.0 1.0 0.00 0.38 0.38 95 1015.3
20260503025908 72 36 0.0 1.0 0.00 0.38 0.38 95 1015.6
20260503025405 71 1 1.0 2.0 0.00 0.38 0.38 95 1015.2
20260503024902 71 43 1.0 2.0 0.00 0.38 0.38 95 1015.2
20260503024358 71 270 0.0 2.0 0.00 0.38 0.38 95 1015.4
20260503023856 71 19 0.0 1.0 0.00 0.38 0.38 95 1015.2
20260503023353 71 16 0.0 2.0 0.00 0.38 0.38 95 1015.1
20260503022850 71 22 0.0 1.0 0.00 0.38 0.38 95 1015.2
20260503022349 72 34 0.0 1.0 0.00 0.38 0.38 95 1014.8
20260503021846 72 30 0.0 0.0 0.00 0.38 0.38 96 1014.6
20260503021342 72 44 0.0 0.0 0.00 0.38 0.38 96 1014.9
20260503020840 72 33 0.0 1.0 0.00 0.38 0.38 96 1014.8
20260503020338 71 42 0.0 1.0 0.07 0.38 0.38 96 1014.6
20260503015834 71 32 0.0 1.0 0.14 0.38 0.38 96 1014.8
20260503015331 71 348 1.0 2.0 0.12 0.37 0.37 96 1015.2
20260503014827 71 27 0.0 1.0 0.05 0.36 0.36 96 1015.1
20260503014325 72 30 1.0 1.0 0.07 0.35 0.35 96 1015.3
20260503013822 72 35 0.0 1.0 0.07 0.35 0.35 96 1015.6
20260503013319 72 37 0.0 1.0 0.00 0.34 0.34 96 1015.3
20260503012816 72 29 1.0 1.0 0.00 0.34 0.34 96 1015.5
20260503012314 72 36 0.0 0.0 0.00 0.34 0.34 96 1014.7
20260503011810 72 33 0.0 1.0 0.00 0.34 0.34 96 1014.3
20260503011307 72 38 0.0 0.0 0.05 0.34 0.34 96 1014.5
20260503010803 72 30 0.0 3.0 0.05 0.34 0.34 96 1014.1
20260503010301 72 332 1.0 3.0 0.00 0.33 0.33 96 1013.9
20260503005758 73 33 0.0 1.0 0.00 0.33 0.33 96 1014.0
20260503005255 73 53 1.0 2.0 0.00 0.33 0.33 96 1013.9
20260503004751 73 41 0.0 1.0 0.00 0.33 0.33 96 1014.5
20260503004249 73 38 0.0 0.0 0.00 0.33 0.33 96 1014.4
20260503003746 73 40 0.0 0.0 0.07 0.33 0.33 96 1014.1
20260503003243 73 43 0.0 0.0 0.07 0.33 0.33 96 1014.1
20260503002740 73 32 0.0 0.0 0.12 0.32 0.32 96 1014.2
20260503002237 73 49 0.0 0.0 0.12 0.31 0.31 96 1013.9
20260503001733 73 39 0.0 0.0 0.00 0.29 0.29 96 1014.4
20260503001229 73 47 0.0 1.0 0.00 0.29 0.29 96 1014.1
20260503000728 73 34 0.0 0.0 0.00 0.29 0.29 96 1013.8
20260503000225 73 43 0.0 0.0 0.00 0.29 0.29 96 1013.4
20260502235721 73 41 0.0 0.0 0.00 0.29 0.29 96 1013.7
20260502235219 73 45 0.0 0.0 0.00 0.29 0.29 96 1013.5
20260502234715 73 39 0.0 0.0 0.00 0.29 0.29 96 1013.7
20260502234213 73 38 0.0 0.0 0.00 0.29 0.29 96 1013.8
20260502233708 73 46 0.0 0.0 0.00 0.29 0.29 96 1013.9
20260502233205 73 41 0.0 0.0 0.00 0.29 0.29 96 1014.2
20260502232701 73 36 0.0 0.0 0.00 0.29 0.29 95 1013.9
20260502232159 73 36 0.0 0.0 0.00 0.29 0.29 95 1014.0
20260502231655 73 39 0.0 0.0 0.00 0.29 0.29 95 1014.3
20260502231153 73 28 0.0 1.0 0.00 0.29 0.29 95 1014.2
20260502230651 73 41 0.0 0.0 0.00 0.29 0.29 95 1014.1
20260502230150 73 42 0.0 0.0 0.00 0.29 0.29 95 1014.2
20260502225644 73 39 0.0 1.0 0.00 0.29 0.29 95 1014.1
20260502225142 73 41 0.0 0.0 0.00 0.29 0.29 95 1014.0
20260502224638 73 43 0.0 0.0 0.00 0.29 0.29 95 1014.0
20260502224135 73 41 0.0 0.0 0.00 0.29 0.29 95 1013.8
20260502223633 73 37 0.0 0.0 0.07 0.29 0.29 95 1014.1
20260502223131 73 39 0.0 0.0 0.31 0.29 0.29 95 1014.0
20260502222628 73 33 0.0 1.0 0.19 0.27 0.27 94 1013.6
20260502222125 73 46 1.0 2.0 0.00 0.24 0.24 94 1013.3
20260502221620 73 32 0.0 1.0 0.00 0.24 0.24 94 1013.8
20260502221118 73 12 1.0 3.0 0.00 0.24 0.24 94 1013.8
20260502220614 73 3 1.0 5.0 0.00 0.24 0.24 94 1013.8
20260502220110 73 35 2.0 5.0 0.00 0.24 0.24 94 1013.8
20260502215607 73 33 1.0 3.0 0.00 0.24 0.24 94 1014.0
20260502215104 73 7 3.0 3.0 0.00 0.24 0.24 94 1013.7
20260502214601 73 348 3.0 5.0 0.00 0.24 0.24 94 1013.6
20260502214058 73 30 2.0 3.0 0.19 0.24 0.24 94 1013.8
20260502213555 73 30 1.0 7.0 0.17 0.23 0.23 93 1013.7
20260502213053 73 313 2.0 5.0 1.18 0.21 0.21 92 1013.6
20260502212552 74 34 1.0 6.0 1.13 0.19 0.19 90 1013.8
20260502212049 79 266 7.0 10.0 0.00 0.00 0.00 84 1014.0
20260502211544 80 29 2.0 3.0 0.00 0.00 0.00 87 1013.0
20260502211042 80 311 3.0 3.0 0.00 0.00 0.00 87 1012.8
20260502210539 81 325 1.0 3.0 0.00 0.00 0.00 86 1012.6
20260502210036 81 44 2.0 2.0 0.00 0.00 0.00 86 1012.7
20260502205532 81 30 0.0 2.0 0.00 0.00 0.00 85 1012.6
20260502205030 81 36 1.0 3.0 0.00 0.00 0.00 85 1012.7
20260502204526 81 356 1.0 2.0 0.00 0.00 0.00 85 1012.7
20260502204024 81 339 1.0 2.0 0.00 0.00 0.00 84 1012.8
20260502203521 82 238 1.0 3.0 0.00 0.00 0.00 84 1012.9
20260502203018 82 43 0.0 2.0 0.00 0.00 0.00 83 1012.7
20260502202514 82 308 1.0 2.0 0.00 0.00 0.00 83 1012.6
20260502202013 82 358 0.0 2.0 0.00 0.00 0.00 84 1012.7
20260502201508 82 17 1.0 3.0 0.00 0.00 0.00 83 1012.7
20260502201005 83 261 2.0 3.0 0.00 0.00 0.00 82 1012.8
20260502200501 83 28 1.0 2.0 0.00 0.00 0.00 81 1012.7
20260502195959 84 39 1.0 2.0 0.00 0.00 0.00 80 1012.7
20260502195456 84 15 2.0 3.0 0.00 0.00 0.00 80 1012.9
20260502194952 84 269 2.0 3.0 0.00 0.00 0.00 79 1012.7
20260502194449 84 236 2.0 3.0 0.00 0.00 0.00 79 1012.9
20260502193944 84 32 1.0 2.0 0.00 0.00 0.00 80 1013.0
20260502193442 85 273 1.0 3.0 0.00 0.00 0.00 78 1012.9
20260502192938 85 29 0.0 2.0 0.00 0.00 0.00 79 1013.1
20260502192435 85 23 1.0 3.0 0.00 0.00 0.00 78 1013.3
20260502191931 86 6 1.0 5.0 0.00 0.00 0.00 76 1013.0
20260502191429 86 38 1.0 2.0 0.00 0.00 0.00 76 1013.1
20260502190927 87 22 1.0 3.0 0.00 0.00 0.00 75 1013.4
20260502190424 86 18 1.0 6.0 0.00 0.00 0.00 76 1013.4
20260502185920 87 341 2.0 2.0 0.00 0.00 0.00 75 1013.4
20260502185415 87 32 1.0 2.0 0.00 0.00 0.00 74 1013.5
20260502184913 87 2 0.0 2.0 0.00 0.00 0.00 75 1013.2
20260502184408 86 32 0.0 5.0 0.00 0.00 0.00 76 1013.5
20260502183905 87 297 1.0 3.0 0.00 0.00 0.00 74 1013.7
20260502183401 87 20 1.0 2.0 0.00 0.00 0.00 74 1013.7
20260502182856 87 8 1.0 3.0 0.00 0.00 0.00 75 1013.6
20260502182352 88 311 2.0 5.0 0.00 0.00 0.00 73 1013.7
20260502181848 87 35 0.0 2.0 0.00 0.00 0.00 77 1013.9
20260502181347 86 299 2.0 3.0 0.00 0.00 0.00 77 1014.1
20260502180845 86 292 2.0 5.0 0.00 0.00 0.00 77 1014.0
20260502180342 86 314 1.0 3.0 0.00 0.00 0.00 76 1014.0
20260502170301 85 28 2.0 5.0 0.00 0.00 0.00 79 1014.6
20260502164248 87 274 2.0 6.0 0.00 0.00 0.00 74 1014.5
20260502163744 88 28 1.0 3.0 0.00 0.00 0.00 74 1014.1
20260502163241 87 335 1.0 3.0 0.00 0.00 0.00 75 1014.2
20260502162738 86 34 2.0 5.0 0.00 0.00 0.00 76 1014.5
20260502162234 86 320 3.0 5.0 0.00 0.00 0.00 76 1014.3
20260502161732 86 16 1.0 5.0 0.00 0.00 0.00 76 1014.4
20260502161228 86 237 2.0 5.0 0.00 0.00 0.00 76 1014.2
20260502160726 86 24 2.0 5.0 0.00 0.00 0.00 77 1014.2
20260502160225 86 33 0.0 6.0 0.00 0.00 0.00 78 1014.2
20260502152149 85 186 4.0 5.0 0.00 0.00 0.00 79 1014.2
20260502151646 85 253 3.0 5.0 0.00 0.00 0.00 78 1014.0
20260502151143 84 264 3.0 6.0 0.00 0.00 0.00 79 1013.9
20260502150641 85 252 4.0 9.0 0.00 0.00 0.00 78 1014.0
20260502150137 84 239 2.0 6.0 0.00 0.00 0.00 79 1013.9
20260502130525 82 334 1.0 3.0 0.00 0.00 0.00 84 1013.1
20260502123509 80 316 2.0 3.0 0.00 0.00 0.00 88 1012.8
20260502123005 80 44 1.0 2.0 0.00 0.00 0.00 88 1012.7
20260502122501 80 43 1.0 2.0 0.00 0.00 0.00 89 1012.6
20260502121959 79 248 2.0 3.0 0.00 0.00 0.00 89 1012.8
20260502121456 79 31 1.0 3.0 0.00 0.00 0.00 90 1012.3
20260502120954 79 33 2.0 3.0 0.00 0.00 0.00 90 1012.7
20260502120450 78 36 0.0 3.0 0.00 0.00 0.00 91 1012.6
20260502115444 78 28 0.0 3.0 0.00 0.00 0.00 91 1012.5
20260502114940 78 268 2.0 3.0 0.00 0.00 0.00 91 1012.4
20260502114437 77 4 0.0 1.0 0.00 0.00 0.00 91 1012.2
20260502113935 77 33 2.0 2.0 0.00 0.00 0.00 91 1012.2
20260502113432 77 168 2.0 5.0 0.00 0.00 0.00 91 1012.5
20260502112931 77 330 1.0 1.0 0.00 0.00 0.00 91 1012.3
20260502112428 77 356 2.0 2.0 0.00 0.00 0.00 91 1012.5
20260502111925 77 288 1.0 2.0 0.00 0.00 0.00 91 1012.6
20260502111422 77 287 2.0 5.0 0.00 0.00 0.00 91 1012.5
20260502110919 77 14 0.0 2.0 0.00 0.00 0.00 91 1012.5
20260502110417 76 297 2.0 2.0 0.00 0.00 0.00 91 1012.4
20260502105914 76 28 0.0 1.0 0.00 0.00 0.00 91 1012.5
20260502105411 76 4 1.0 5.0 0.00 0.00 0.00 91 1012.3
20260502104909 76 33 0.0 3.0 0.00 0.00 0.00 91 1012.3
20260502104406 76 59 1.0 2.0 0.00 0.00 0.00 91 1012.4
20260502103904 76 11 1.0 3.0 0.00 0.00 0.00 91 1012.4
20260502103401 76 22 1.0 2.0 0.00 0.00 0.00 91 1012.2
20260502102858 76 66 2.0 3.0 0.00 0.00 0.00 91 1012.2
20260502102355 76 29 0.0 3.0 0.00 0.00 0.00 90 1012.3
20260502101852 76 35 0.0 2.0 0.00 0.00 0.00 90 1012.4
20260502101350 76 15 1.0 2.0 0.00 0.00 0.00 90 1012.5
20260502100848 76 51 1.0 1.0 0.00 0.00 0.00 89 1012.4
20260502100347 75 48 0.0 3.0 0.00 0.00 0.00 89 1012.5
20260502091321 75 43 0.0 1.0 0.00 0.00 0.00 88 1012.6
20260502090819 74 25 0.0 1.0 0.00 0.00 0.00 88 1012.8
20260502090315 74 45 0.0 1.0 0.00 0.00 0.00 87 1012.8
20260502071210 72 38 0.0 0.0 0.00 0.00 0.00 88 1013.2
20260502070709 73 40 0.0 0.0 0.00 0.00 0.00 87 1013.1
20260502070206 73 39 0.0 0.0 0.00 0.00 0.00 87 1012.8
20260502065704 73 41 0.0 0.0 0.00 0.00 0.00 86 1013.1
20260502065201 73 41 0.0 0.0 0.00 0.00 0.00 86 1012.9
20260502064700 73 46 0.0 0.0 0.00 0.00 0.00 86 1013.2
20260502064156 74 43 0.0 0.0 0.00 0.00 0.00 86 1013.1
20260502063655 74 49 0.0 0.0 0.00 0.00 0.00 86 1013.1
20260502063152 74 44 0.0 1.0 0.00 0.00 0.00 85 1013.3
20260502062649 74 46 0.0 0.0 0.00 0.00 0.00 85 1013.2
20260502062147 73 48 0.0 0.0 0.00 0.00 0.00 86 1013.1
20260502061645 73 45 0.0 0.0 0.00 0.00 0.00 86 1013.3
20260502061142 73 51 0.0 0.0 0.00 0.00 0.00 87 1013.3
20260502060642 73 42 0.0 1.0 0.00 0.00 0.00 87 1013.3
20260502060139 72 40 0.0 1.0 0.00 0.00 0.00 88 1013.3
20260502055637 72 34 0.0 0.0 0.00 0.00 0.00 89 1013.5
20260502055135 72 43 0.0 0.0 0.00 0.00 0.00 89 1013.4
20260502054634 72 40 0.0 0.0 0.00 0.00 0.00 89 1013.5
20260502054130 72 43 0.0 0.0 0.00 0.00 0.00 89 1013.4
20260502053628 72 42 0.0 0.0 0.00 0.00 0.00 89 1013.6
20260502053125 72 44 0.0 0.0 0.00 0.00 0.00 90 1013.6
20260502052623 72 46 0.0 0.0 0.00 0.00 0.00 90 1013.8
20260502052121 72 44 0.0 0.0 0.00 0.00 0.00 91 1013.7
20260502051619 72 43 0.0 0.0 0.00 0.00 0.00 91 1014.1
20260502051117 72 42 0.0 0.0 0.00 0.00 0.00 92 1014.1
20260502050613 72 40 0.0 1.0 0.00 0.00 0.00 92 1013.9
20260502050110 72 39 0.0 0.0 0.00 0.00 0.00 92 1014.1
20260502045606 72 39 0.0 0.0 0.00 0.00 0.00 92 1014.1
20260502045103 72 39 0.0 0.0 0.00 0.00 0.00 92 1013.9
20260502044559 72 41 0.0 0.0 0.00 0.00 0.00 92 1014.3